Regional Weather Roundup
Issued by NWS

Home | Current Version | Previous Version | Graphics & Text | Print | Product List | Glossary On
Versions: 1 2 3 4 5 6 7 8 9 10 11 12 13 14 15 16 17 18 19 20 21 22 23 24 25 26 27 28 29 30 31 32 33 34 35 36 37 38 39 40 41 42 43 44 45 46 47 48 49 50
000
ASUS43 KMKX 171720
RWRWI

WISCONSIN REGIONAL WEATHER ROUNDUP
NATIONAL WEATHER SERVICE MILWAUKEE/SULLIVAN WI
1100 AM CST SAT FEB 17 2018

NOTE: "FAIR" INDICATES FEW OR NO CLOUDS BELOW 12,000 FEET WITH NO
SIGNIFICANT WEATHER AND/OR OBSTRUCTIONS TO VISIBILITY.

WIZ001-002-006>008-014>016-023>028-171800-
NORTHWEST WISCONSIN

CITY           SKY/WX    TMP DP  RH WIND       PRES   REMARKS
SUPERIOR ARPT  FAIR      25  15  67 W14       29.83R WCI  13
ASHLAND        FAIR      25  15  66 SW16      29.81F WCI  12
HAYWARD        FAIR      26  16  65 S8        29.82F WCI  18
SIREN          FAIR      27  17  66 SW10      29.85S WCI  18
CUMBERLAND     CLOUDY    27  19  74 W7        29.85S WCI  19
RICE LAKE      PTSUNNY   26  20  79 SW6       29.88R WCI  19
CHETEK         PTSUNNY   26  20  80 SW8       29.87R WCI  17
LADYSMITH      CLOUDY    24  18  80 SW8       29.86F WCI  15
EAU CLAIRE     LGT SNOW  24  20  84 SW9       29.88S FOG     WCI  14
MENOMONIE      LGT SNOW  27  22  83 SW7       29.89R WCI  19
NEW RICHMOND   CLOUDY    27  21  77 SW8       29.88R WCI  19
OSCEOLA        CLOUDY    28  21  74 W7        29.91S WCI  21
$$

WIZ003>005-009-010-017-018-171800-
NORTH CENTRAL WISCONSIN

CITY           SKY/WX    TMP DP  RH WIND       PRES   REMARKS
MANITOWISH WTR PTSUNNY   21  12  68 SW10G17   29.78F WCI  10
ARBOR VITAE    PTSUNNY   23  15  70 SW12      29.79F WCI  12
WOODRUFF       PTSUNNY   23  15  70 SW12      29.79F WCI  12
RHINELANDER    CLOUDY    20  13  74 SW9       29.82S HAZE    WCI   9
EAGLE RIVER    FAIR      20  10  64 SW13G18   29.79F WCI   7
LAND O LAKES   FAIR      22  11  61 SW6       29.78F WCI  15
PHILLIPS       PTSUNNY   21  15  76 SW10      29.81F WCI  10
TOMAHAWK       LGT SNOW  20  14  76 SW8       29.84F WCI  11
MEDFORD        LGT SNOW  19  15  88 SW7       29.84F VSB 1   WCI   9
MERRILL        LGT SNOW  20  17  86 SW6       29.87S VSB 1   WCI  13
$$

WIZ029-030-035-036-043>047-171800-
CENTRAL WISCONSIN

CITY           SKY/WX    TMP DP  RH WIND       PRES   REMARKS
WAUSAU         LGT SNOW  21  17  84 SW9       29.86F VSB 1   WCI  11
MOSINEE        LGT SNOW  21  18  86 SW10      29.89F WCI  10
MARSHFIELD     LGT SNOW  22  18  85 SW7       29.86F VSB 1   WCI  13
STEVENS POINT  CLOUDY    22  11  64 SW10G21   29.90F WCI  11
WAUPACA        CLOUDY    27   9  46 SW10      29.94F WCI  17
WAUTOMA        CLOUDY    25  10  53 SW7       29.95F WCI  17
WISC RAPIDS    LGT SNOW  23  16  74 SW10      29.92F VSB 3/4 WCI  12
CAMP DOUGLAS   FLURRIES  25  16  68 S9        29.92F WCI  15
$$

WIZ011>013-019>022-031-037>040-048>050-171800-
NORTHEAST WISCONSIN

CITY           SKY/WX    TMP DP  RH WIND       PRES   REMARKS
ANTIGO         MIX PCPN  20  16  85 SW9       29.85F WCI   9
SHAWANO        CLOUDY    27  13  56 SW9G16    29.92F WCI  18
OCONTO         CLOUDY    26  11  52 SW14G20   29.93F WCI  14
STURGEON BAY   PTSUNNY   26  10  50 SW17G24   29.93F WCI  13
GREEN BAY      CLOUDY    25   9  50 SW15G21   29.95F WCI  13
MANITOWOC      CLOUDY    28   7  41 SW13      29.98F WCI  17
APPLETON       CLOUDY    23   7  50 SW15      29.93F WCI  10
CLINTONVILLE   CLOUDY    26  10  50 SW12      29.92F WCI  15
OSHKOSH        CLOUDY    24  11  57 SW13G20   29.95F WCI  12
$$

WIZ032>034-041-042-053>061-171800-
SOUTHWEST WISCONSIN

CITY           SKY/WX    TMP DP  RH WIND       PRES   REMARKS
LA CROSSE      SNOW      25  21  85 S12       29.94F VSB 1/2 WCI  14
SPARTA         CLOUDY    27  13  56 S9        29.93F WCI  17
VIROQUA        CLOUDY    23  18  82 SW10      29.93F VSB 1   WCI  12
BOSCOBEL       CLOUDY    28  13  53 CALM      29.98F
PRAIRIE DU CHI CLOUDY    27  12  54 CALM      29.98F
PLATTEVILLE    FAIR      26  18  71 SW8       29.96F WCI  18
$$

WIZ056-057-062-063-064-067-068-171800-
SOUTH CENTRAL WISCONSIN

CITY           SKY/WX    TMP DP  RH WIND       PRES   REMARKS
REEDSBURG      LGT SNOW  24  17  77 S7        29.96F WCI  15
BARABOO/DELLS  CLOUDY    26  12  56 W12G17    29.97R WCI  15
LONE ROCK      CLOUDY    27  12  53 VRB3      29.98F
MINERAL POINT  FAIR      28  18  64 S7        29.94F WCI  21
MADISON        CLOUDY    26  11  52 SW8       29.99F WCI  18
MIDDLETON      FAIR      29  12  50 SW7       29.98S WCI  21
WATERTOWN      PTSUNNY   26  12  56 S8        29.99F WCI  18
MONROE         FAIR      28  16  59 S13       29.97F WCI  18
JANESVILLE     CLOUDY    28  14  54 SW12      30.02R WCI  18
$$

WIZ051-052-058>065-066-070>072-171800-
SOUTHEAST WISCONSIN

CITY           SKY/WX    TMP DP  RH WIND       PRES   REMARKS
MILWAUKEE      CLOUDY    27   8  44 W9        30.02F WCI  18
WAUKESHA       MOSUNNY   25   9  50 SW10G17   30.02F WCI  15
MILWAUKEE/TIMM CLOUDY    27   3  36 SW12      30.03F WCI  16
RACINE         CLOUDY    28  12  51 SW8       30.03F WCI  20
BURLINGTON     FAIR      28  13  54 SW8       30.02F WCI  19
KENOSHA        CLOUDY    30  14  51 SW10      30.03F WCI  21
FOND DU LAC    PTSUNNY   25   9  50 SW12      29.96F WCI  14
SHEBOYGAN      CLOUDY    27   9  46 SW14      29.98F WCI  16
WEST BEND      CLOUDY    27   9  46 SW16      29.98F WCI  14
JUNEAU         CLOUDY    24  11  57 S12       29.99F WCI  13
$$

LSZ147-162-171800-
LAKE SUPERIOR

STATION/POSITION TIME  TEMP    WIND        PRES    WAVE
                       AIR SEA DIR/SP/G            HT/PER
                 (UTC) (F)     (DEG/KT/KT) (MB)    (FT/S)
DEVILS ISLAND    1700   24     240/ 22/ 27 1009.3F
SAXON HARBOR     1640   26     200/  7/ 12 1009.1F
$$

LMZ867-665-643>646-171800-
LAKE MICHIGAN

STATION/POSITION TIME  TEMP    WIND        PRES    WAVE
                       AIR SEA DIR/SP/G            HT/PER
                 (UTC) (F)     (DEG/KT/KT) (MB)    (FT/S)
NORTHPORT PIER   1707   27                 1012.9
KEWAUNEE LAKESHO 1654   27     220/  9/ 13 1013.8F
SHEBOYGAN LAKESH 1700   26     220/ 11/ 14 1016.4F
PORT WASHINGTON  1630   29     200/  7/ 10 1017.6F
MILWAUKEE LAKESH 1700   27     240/ 11/ 14   N/A
KENOSHA   LAKESH 1700   29     220/  5/  8 1017.3
$$

TC  - TEMPERATURE IN CELSIUS
VSB - VISIBILITY IN STATUTE MILES
WCI - WIND CHILL INDEX
HX  - HEAT INDEX





USA.gov is the U.S. government's official web portal to all federal, state and local government web resources and services.